STARLINK-2629 (48686 NORAD) Tracking and Keplerian Element Data

This shows tracking and keplerian element data for the satellite.

Feedback or suggestion? Click here.




ElementValue
Catalog48686
NameSTARLINK-2629
Epoch Orbit173
Epoch Day170.58334491
Epoch Year2021
RAAN306.246
Inclination53.0478
Eccentricity0.0001229
Argument of Perigee45.4637
Mean Anonmoly85.8681
Mean Motion15.73277984
Decay Rate-0.00118386
L11 48686U 21044BA 21170.58334491 -.00118386 00000-0 -84800-3 0 9993
L22 48686 53.0478 306.2460 0001229 45.4637 85.8681 15.73277984 1735

Live tracking and technical data element details for STARLINK-2629 (NORAD 48686). STARLINK-2629 can be tracked NOW for your location showing map with azimuth and elevation plus other details from your city location.

Track the satellite on the map from your city or location and see movement details for azimuth, elevation, latitude, longitude, range, height, and movement on the map or in text.







IsCatalogInMostPopularTable: catalog: 48686, numindb: 2
Update: records affected: 1



GetName: 48686 STARLINK-2629

Hit Count: updated at: Mon, 21 Jun 2021 04:35:31 GMT